Location: Cahoon Acres
(40.8736°N, 111.8994°W)
Time: 05:50:53
(UTC+00:00)

S-56A Canister/Altair - Visible Passes

Search period start: 28 May 2020 00:00
Search period end: 07 June 2020 00:00
Orbit: 633 x 2499 km, 38.9° (Epoch: 27 May)

Date Brightness Start Highest point End Pass type
(mag) Time Alt. Az. Time Alt. Az. Time Alt. Az.
28 May 9.9 10:45:24 10° SSE 10:48:45 15° SE 10:52:43 10° E visible
29 May 10.0 10:14:42 10° SE 10:16:17 11° SE 10:17:59 10° ESE visible
31 May 9.1 11:08:27 10° SSW 11:13:23 34° SE 11:20:12 10° E visible
01 Jun 9.1 10:37:12 14° SSW 10:40:51 28° SE 10:46:41 10° E visible
02 Jun 9.0 10:06:10 17° S 10:08:22 22° SE 10:13:13 10° E visible
03 Jun 9.2 09:35:06 17° SSE 09:35:54 18° SE 09:39:43 10° E visible
04 Jun 9.5 09:04:02 13° SE 09:04:02 13° SE 09:06:04 10° ESE visible
04 Jun 8.2 11:01:27 12° SW 11:06:05 53° SSE 11:13:02 10° E visible
05 Jun 8.1 10:30:21 20° SW 10:33:31 46° SSE 10:39:46 10° E visible
06 Jun 8.1 09:59:15 29° SSW 10:00:59 39° SSE 10:06:34 10° E visible
